Time,TemperatureF,DewpointF,PressureIn,WindDirection,WindDirectionDegrees,WindSpeedMPH,WindSpeedGustMPH,Humidity,HourlyPrecipIn,Conditions,Clouds,dailyrainin,SoftwareType,DateUTC
2013-09-13 00:22:00,62.0,-99.9,-100.00,North,0,0.0,0.0,-999,0.00,,,-99.99,,2013-09-13 06:22:00,
2013-09-13 00:52:00,63.0,-99.9,-100.00,South,184,5.0,6.0,-999,0.00,,,-99.99,,2013-09-13 06:52:00,
2013-09-13 01:22:00,62.0,-99.9,-100.00,North,0,0.0,0.0,-999,0.00,,,-99.99,,2013-09-13 07:22:00,
2013-09-13 01:53:00,61.0,-99.9,-100.00,North,0,0.0,0.0,-999,0.00,,,-99.99,,2013-09-13 07:53:00,
2013-09-13 02:22:00,61.0,-99.9,-100.00,North,0,0.0,0.0,-999,0.00,,,-99.99,,2013-09-13 08:22:00,
2013-09-13 02:52:00,60.0,-99.9,-100.00,North,0,0.0,0.0,-999,0.00,,,-99.99,,2013-09-13 08:52:00,
2013-09-13 03:21:00,59.0,-99.9,-100.00,North,0,0.0,0.0,-999,0.00,,,-99.99,,2013-09-13 09:21:00,
2013-09-13 03:54:00,58.0,-99.9,-100.00,North,0,0.0,0.0,-999,0.00,,,-99.99,,2013-09-13 09:54:00,
2013-09-13 04:23:00,59.0,-99.9,-100.00,SW,231,4.0,5.0,-999,0.00,,,-99.99,,2013-09-13 10:23:00,
2013-09-13 04:53:00,58.0,-99.9,-100.00,North,0,0.0,0.0,-999,0.00,,,-99.99,,2013-09-13 10:53:00,
2013-09-13 05:22:00,58.0,-99.9,-100.00,North,0,0.0,0.0,-999,0.00,,,-99.99,,2013-09-13 11:22:00,
2013-09-13 05:52:00,57.0,-99.9,-100.00,North,0,0.0,0.0,-999,0.00,,,-99.99,,2013-09-13 11:52:00,
2013-09-13 06:22:00,58.0,-99.9,-100.00,North,0,0.0,0.0,-999,0.00,,,-99.99,,2013-09-13 12:22:00,
2013-09-13 06:52:00,57.0,-99.9,-100.00,North,0,0.0,0.0,-999,0.00,,,-99.99,,2013-09-13 12:52:00,
2013-09-13 07:22:00,56.0,-99.9,-100.00,North,0,0.0,0.0,-999,0.00,,,-99.99,,2013-09-13 13:22:00,
2013-09-13 07:52:00,58.0,-99.9,-100.00,North,0,0.0,0.0,-999,0.00,,,-99.99,,2013-09-13 13:52:00,
2013-09-13 08:22:00,61.0,-99.9,-100.00,North,0,0.0,0.0,-999,0.00,,,-99.99,,2013-09-13 14:22:00,
2013-09-13 08:52:00,64.0,-99.9,-100.00,North,0,0.0,0.0,-999,0.00,,,-99.99,,2013-09-13 14:52:00,
2013-09-13 09:22:00,66.0,-99.9,-100.00,North,0,0.0,0.0,-999,0.00,,,-99.99,,2013-09-13 15:22:00,
2013-09-13 09:54:00,69.0,-99.9,-100.00,North,0,0.0,0.0,-999,0.00,,,-99.99,,2013-09-13 15:54:00,
2013-09-13 10:24:00,71.0,-99.9,-100.00,North,0,0.0,0.0,-999,0.00,,,-99.99,,2013-09-13 16:24:00,
2013-09-13 10:54:00,74.0,-99.9,-100.00,SW,235,5.0,6.0,-999,0.00,,,-99.99,,2013-09-13 16:54:00,
2013-09-13 11:24:00,76.0,-99.9,-100.00,SSW,210,6.0,8.0,-999,0.00,,,-99.99,,2013-09-13 17:24:00,
2013-09-13 11:53:00,77.0,-99.9,-100.00,SW,231,6.0,7.0,-999,0.00,,,-99.99,,2013-09-13 17:53:00,
2013-09-13 12:23:00,77.0,-99.9,-100.00,SSW,207,6.0,7.0,-999,0.00,,,-99.99,,2013-09-13 18:23:00,
2013-09-13 12:52:00,81.0,-99.9,-100.00,SW,215,8.0,9.0,-999,0.00,,,-99.99,,2013-09-13 18:52:00,
2013-09-13 13:22:00,83.0,-99.9,-100.00,SSW,201,7.0,8.0,-999,0.00,,,-99.99,,2013-09-13 19:22:00,
2013-09-13 13:52:00,85.0,-99.9,-100.00,SSW,211,6.0,7.0,-999,0.00,,,-99.99,,2013-09-13 19:52:00,
2013-09-13 14:22:00,85.0,-99.9,-100.00,SSW,198,7.0,9.0,-999,0.00,,,-99.99,,2013-09-13 20:22:00,
2013-09-13 14:52:00,86.0,-99.9,-100.00,SSW,204,7.0,8.0,-999,0.00,,,-99.99,,2013-09-13 20:52:00,
2013-09-13 15:22:00,86.0,-99.9,-100.00,SSW,212,7.0,8.0,-999,0.00,,,-99.99,,2013-09-13 21:22:00,
2013-09-13 15:54:00,87.0,-99.9,-100.00,SSW,200,6.0,7.0,-999,0.00,,,-99.99,,2013-09-13 21:54:00,
2013-09-13 16:24:00,86.0,-99.9,-100.00,SW,226,6.0,8.0,-999,0.00,,,-99.99,,2013-09-13 22:24:00,
2013-09-13 16:54:00,85.0,-99.9,-100.00,WSW,239,6.0,8.0,-999,0.00,,,-99.99,,2013-09-13 22:54:00,
2013-09-13 17:22:00,84.0,-99.9,-100.00,SSW,205,7.0,8.0,-999,0.00,,,-99.99,,2013-09-13 23:22:00,
2013-09-13 17:53:00,81.0,-99.9,-100.00,WSW,252,6.0,7.0,-999,0.00,,,-99.99,,2013-09-13 23:53:00,
2013-09-13 18:22:00,80.0,-99.9,-100.00,SW,217,6.0,7.0,-999,0.00,,,-99.99,,2013-09-14 00:22:00,
2013-09-13 18:53:00,79.0,-99.9,-100.00,SSW,203,5.0,6.0,-999,0.00,,,-99.99,,2013-09-14 00:53:00,
2013-09-13 19:12:00,78.0,-99.9,-100.00,SSW,197,4.0,5.0,-999,0.00,,,-99.99,,2013-09-14 01:12:00,
2013-09-13 19:22:00,78.0,-99.9,-100.00,SSW,197,4.0,5.0,-999,0.00,,,-99.99,,2013-09-14 01:22:00,
2013-09-13 19:52:00,76.0,-99.9,-100.00,North,0,0.0,0.0,-999,0.00,,,-99.99,,2013-09-14 01:52:00,
2013-09-13 20:22:00,74.0,-99.9,-100.00,North,0,0.0,0.0,-999,0.00,,,-99.99,,2013-09-14 02:22:00,
2013-09-13 20:52:00,72.0,-99.9,-100.00,SSW,205,5.0,6.0,-999,0.00,,,-99.99,,2013-09-14 02:52:00,
2013-09-13 21:22:00,72.0,-99.9,-100.00,SW,214,5.0,6.0,-999,0.00,,,-99.99,,2013-09-14 03:22:00,
2013-09-13 21:55:00,70.0,-99.9,-100.00,North,0,0.0,0.0,-999,0.00,,,-99.99,,2013-09-14 03:55:00,
2013-09-13 22:24:00,70.0,-99.9,-100.00,SSW,210,1.0,4.0,-999,0.00,,,-99.99,,2013-09-14 04:24:00,
2013-09-13 23:23:00,69.0,-99.9,-100.00,North,0,0.0,0.0,-999,0.00,,,-99.99,,2013-09-14 05:23:00,
2013-09-13 23:43:00,69.0,-99.9,-100.00,North,0,0.0,0.0,-999,0.00,,,-99.99,,2013-09-14 05:43:00,
2013-09-13 23:53:00,69.0,-99.9,-100.00,North,0,0.0,0.0,-999,0.00,,,-99.99,,2013-09-14 05:53:00,